Lid_Strength_Index
8 8 7 7 7 7 6 6 6 5 5 6 5 5 4 4 3 5 7 6 8 11 9 7 7 9 9 9 14 10 10 9 9 15 13 13 14 12 13 12 12 13 15 16 15 17 19 8 8 12 9 8 7 7
6 6 6 6 6 6 6 5 5 5 5 5 3 3 2 2 2 3 6 5 4 7 9 6 5 4 5 5 7 8 9 9 10 12 12 11 13 13 14 16 9 14 12 15 13 14 9 7 8 6 6 7 7 7
6 6 5 5 4 4 4 4 4 4 3 2 2 1 1 1 1 3 6 6 7 9 9 9 8 5 3 2 2 8 8 6 6 5 9 12 14 12 15 15 12 10 9 12 13 10 9 8 6 6 6 6 6 6
4 3 3 2 2 3 3 3 3 3 2 2 1 1 1 1 0 2 3 5 6 8 11 11 5 6 2 2 3 2 4 4 4 6 10 11 12 9 13 12 12 11 10 12 11 9 8 7 6 6 6 6 6 6
3 2 1 1 2 2 2 3 3 3 2 2 1 1 0 -0 -0 2 4 4 4 9 15 12 6 4 3 4 4 4 4 6 8 9 9 11 9 9 9 10 12 9 10 12 13 8 8 7 6 5 6 6 5 5
3 2 1 2 2 1 2 3 3 2 1 0 0 0 0 -0 0 5 10 5 4 4 7 11 6 5 4 4 5 5 6 7 7 9 10 8 7 8 12 13 9 8 7 6 9 7 6 6 6 6 6 6 6 6
2 1 1 2 1 0 1 1 2 1 -0 -0 0 0 -0 -0 3 7 10 6 1 3 7 11 10 7 5 5 7 8 7 8 8 9 10 9 9 8 11 13 9 8 7 7 6 6 7 6 7 5 5 5 5 6
2 1 1 1 0 -0 0 0 0 -0 -0 0 0 -0 -0 -0 1 5 4 1 2 6 7 12 12 11 6 8 8 6 8 8 7 8 7 9 8 9 12 9 8 6 6 6 6 5 6 5 5 5 5 6 6 7
1 1 1 1 0 0 -0 -0 0 1 1 1 0 0 3 5 7 6 -0 1 4 7 12 12 13 16 7 9 8 7 6 10 8 10 10 10 13 13 10 8 7 7 7 6 5 5 5 6 6 5 6 6 7 7
1 1 2 1 1 1 1 1 0 0 -0 0 4 9 14 7 2 2 6 8 7 6 7 12 10 13 10 10 11 12 10 10 12 10 8 11 11 8 7 6 6 6 5 5 7 7 6 7 6 6 6 5 5 5
1 1 1 1 1 1 1 1 1 1 2 6 10 12 6 1 5 8 10 11 12 12 10 10 10 12 8 12 12 10 13 10 13 11 11 12 12 9 6 6 6 6 6 6 5 6 6 6 6 6 6 6 7 7
1 1 1 1 1 1 1 1 1 4 6 6 5 4 4 6 10 11 13 11 12 12 10 10 9 9 9 7 10 10 11 13 15 10 12 14 10 7 6 7 6 6 7 7 6 7 7 6 6 6 7 8 8 9
1 1 1 1 1 1 1 1 1 1 2 4 6 8 9 13 14 14 17 12 12 9 8 8 9 7 7 7 10 10 15 16 11 16 16 11 8 7 7 7 7 7 7 7 7 8 8 8 8 8 8 8 9 9
2 2 1 1 1 1 1 1 1 2 5 8 10 18 13 16 13 11 11 11 9 8 9 8 9 8 9 9 12 14 12 12 17 16 14 10 8 7 7 7 8 8 9 8 7 8 10 9 9 9 10 9 9 9
1 1 1 1 1 1 1 1 1 4 7 9 9 16 14 10 10 8 8 8 8 6 7 10 10 9 12 14 12 12 14 16 13 13 10 8 7 7 8 8 9 9 9 9 8 9 10 10 10 10 10 10 9 9
1 1 2 0 0 1 0 1 4 4 6 8 9 11 13 13 16 16 12 12 7 8 9 10 12 12 14 12 12 15 13 14 12 10 9 8 8 8 8 9 9 9 8 8 8 8 9 12 12 11 12 11 11 10
2 4 1 1 1 1 1 3 4 7 8 9 10 11 12 9 9 9 7 8 7 9 13 12 14 12 10 12 13 11 12 10 9 9 8 8 7 8 8 9 9 8 8 8 8 8 8 9 11 10 10 11 11 11
7 4 3 2 2 3 4 4 6 8 9 9 12 13 13 11 11 10 8 7 7 7 7 10 9 11 16 13 12 9 9 8 9 9 8 8 7 8 8 8 9 7 7 8 8 8 9 9 8 8 8 9 11 11
6 5 4 3 4 5 7 6 6 10 10 11 10 11 11 11 10 10 7 6 6 6 7 8 10 11 11 9 9 9 10 9 9 9 8 8 8 8 8 8 7 7 7 7 8 8 8 8 8 7 7 9 11 12
4 4 4 4 4 8 8 8 5 8 10 10 9 10 10 10 10 9 7 7 9 8 9 10 11 9 9 8 7 7 7 8 8 9 9 9 8 7 8 8 7 8 8 7 7 8 8 8 7 7 7 7 10 10
6 6 4 6 8 8 9 10 9 9 9 10 9 9 10 10 11 11 12 9 10 10 10 11 9 7 6 6 6 6 7 7 9 10 10 11 9 9 9 9 9 8 8 8 8 9 9 8 7 7 7 7 8 9
7 5 8 7 9 8 10 8 9 9 10 10 10 10 11 14 13 11 8 8 9 9 9 8 7 7 8 7 7 7 8 8 9 10 11 10 11 10 10 10 10 10 10 9 8 8 8 8 7 8 8 8 8 9
6 7 9 9 11 14 13 9 11 10 12 11 10 11 12 12 10 8 9 9 10 9 8 8 8 6 7 7 8 8 8 9 10 11 10 11 11 11 10 10 10 11 11 10 10 8 8 8 9 8 8 8 8 9
7 11 15 14 13 17 12 15 11 11 11 12 12 14 13 13 10 11 11 11 10 9 9 8 8 8 8 8 9 9 10 9 10 10 9 10 11 11 10 10 10 10 10 9 8 8 8 7 8 8 8 8 8 9
15 16 15 19 14 16 19 18 16 13 18 14 15 17 15 11 14 13 13 12 12 11 10 9 9 9 10 10 10 10 9 10 11 12 11 11 11 11 11 10 10 9 9 9 10 10 9 8 7 8 8 8 8 8
20 17 17 17 18 16 15 19 20 19 16 19 17 13 13 16 18 16 14 13 12 11 12 11 11 12 11 10 11 12 11 10 11 12 11 11 11 12 12 13 13 11 9 9 9 10 10 10 8 8 8 8 8 7
19 18 11 10 11 11 16 15 12 16 20 21 14 16 18 22 17 14 12 11 11 11 10 11 11 12 12 12 12 11 11 11 12 12 11 12 11 11 12 14 14 11 9 9 9 10 11 10 10 9 8 7 7 7
14 13 18 16 16 12 20 20 20 21 14 13 15 21 21 17 17 14 13 12 12 11 11 11 11 11 12 12 12 13 13 13 13 13 13 14 13 14 16 13 12 11 12 12 11 11 11 10 9 8 8 7 7 7
16 12 13 20 22 18 19 19 15 12 12 13 17 17 15 14 13 13 12 14 12 13 14 15 16 15 13 13 14 16 14 14 16 17 18 17 16 15 13 13 14 13 14 13 12 11 11 10 9 8 7 8 6 9
18 12 18 22 22 20 15 14 17 16 12 12 11 13 14 14 13 12 13 14 15 15 15 15 13 16 15 15 14 16 15 16 16 17 17 17 16 14 13 13 13 14 13 13 14 14 11 10 9 8 7 7 9 11
14 17 19 17 19 19 18 19 20 18 21 19 20 17 16 15 13 13 14 16 16 17 16 13 13 12 15 15 13 13 14 15 16 15 16 14 14 14 13 12 12 13 14 15 15 14 13 11 10 9 8 8 9 11
21 20 20 20 18 18 21 22 24 24 23 21 16 15 15 14 16 15 15 17 15 13 13 13 13 12 10 12 14 18 18 15 15 13 13 13 13 13 13 12 12 13 14 14 15 12 11 11 10 9 8 9 10 11
22 22 22 25 22 22 22 22 21 22 24 20 14 15 16 17 18 16 16 17 17 18 15 14 12 12 12 13 15 16 15 14 14 11 12 13 13 12 12 12 13 14 14 14 12 11 12 12 12 10 9 10 10 10